Flag for Romania Weather past 2 weeks in Sibiu, Romania

Now
36 °F

Clear.


Feels Like: 36 °F
Forecast: 32 / 52 °F
Wind: 2 mph from East

Location: Sibiu Airport

Current Time: Dec 20, 2014 at 1:49:07 AM

Latest Report: Dec 20, 2014 at 1:00 AM


Visibility: 10 mi

Pressure: 30.07 "Hg

Humidity: 93%

Dew point: 34 °F

Location of SibiuLocation

Historic Weather in Sibiu — Graph

°F

Sibiu temperature yesterday

Maximum temperature yesterday: 46 °F (at 1:30 PM)
Minimum temperature yesterday: 34 °F (at 7:00 AM)
Average temperature yesterday: 41 °F

Past Weeks' High & Low Weather Summary

 TemperatureHumidityPressure
High52 °F (Dec 15, 1:30 PM)100% (Dec 5, 3:00 AM)30.24 "Hg (Dec 5, 3:00 AM)
Low23 °F (Dec 13, 5:00 AM)46% (Dec 13, 2:00 PM)29.83 "Hg (Dec 17, 5:00 AM)
Average39 °F87%30.07 "Hg
* Reported Midnight between Dec 4 and Dec 5 — Midnight between Dec 19 and Dec 20, Sibiu, Weather by CustomWeather, © 2014

Note: Actual official high and low records may vary slightly from our data, if they occured in-between our weather recording intervals... More about our weather records

Advertising

Sibiu weather history for previous 24 hours

 ConditionsComfort  
Time TempWeatherWind HumidityBarometerVisibility
12:00 AM
Dec 20
36 °FClear.2 mph93%30.07 "Hg10 mi
11:00 PM
Dec 19
37 °FChilly.2 mph81%30.09 "HgN/A
9:00 PM43 °FPassing clouds.5 mph76%30.09 "HgN/A
8:30 PM43 °FPassing clouds.2 mph81%30.09 "HgN/A
8:00 PM43 °FPassing clouds.2 mph81%30.09 "HgN/A
7:30 PM45 °FPassing clouds.5 mph76%30.09 "HgN/A
7:00 PM45 °FPassing clouds.2 mph71%30.09 "HgN/A
6:30 PM45 °FPassing clouds.2 mph76%30.09 "HgN/A
6:00 PM45 °FPassing clouds.2 mph71%30.09 "HgN/A
5:30 PM45 °FPassing clouds.2 mph71%30.09 "HgN/A
5:00 PM46 °FPassing clouds.2 mph66%30.09 "HgN/A
4:30 PM46 °FPartly sunny.2 mph66%30.09 "HgN/A
4:00 PM46 °FPartly sunny.5 mph66%30.09 "HgN/A
3:30 PM46 °FPartly sunny.5 mph66%30.09 "HgN/A
3:00 PM46 °FScattered clouds.5 mph66%30.09 "HgN/A
2:30 PM46 °FPartly sunny.5 mph66%30.09 "HgN/A
2:00 PM45 °FPartly sunny.5 mph71%30.09 "HgN/A
1:30 PM46 °FPartly sunny.2 mph66%30.12 "HgN/A
1:00 PM45 °FPartly sunny.5 mph71%30.12 "HgN/A
12:30 PM43 °FPartly sunny.2 mph71%30.12 "HgN/A
12:00 PM43 °FPartly sunny.2 mph76%30.12 "Hg6 mi
11:30 AM41 °FOvercast.5 mph76%30.12 "Hg6 mi
11:00 AM39 °FOvercast.5 mph87%30.15 "Hg6 mi
10:30 AM39 °FOvercast.2 mph81%30.15 "HgN/A
10:00 AM39 °FOvercast.2 mph87%30.15 "HgN/A
9:30 AM37 °FPartly sunny.2 mph87%30.15 "Hg6 mi
8:30 AM36 °FPartly sunny.No wind93%30.15 "Hg6 mi
8:00 AM34 °FOvercast.2 mph93%30.15 "Hg4 mi
7:30 AM34 °FOvercast.2 mph87%30.15 "Hg4 mi
7:00 AM34 °FPassing clouds.2 mph87%30.15 "HgN/A
6:30 AM36 °FPassing clouds.5 mph87%30.15 "HgN/A
6:00 AM36 °FPassing clouds.7 mph87%30.15 "HgN/A
5:30 AM37 °FOvercast.2 mph87%30.15 "HgN/A
5:00 AM37 °FOvercast.7 mph87%30.15 "HgN/A
4:00 AM37 °FOvercast.5 mph81%30.15 "HgN/A
3:00 AM36 °FPassing clouds.5 mph87%30.15 "HgN/A
2:00 AM39 °FOvercast.5 mph81%30.12 "HgN/A
Weather by CustomWeather, © 2014

See weather overviewHow to use our weather pages